Dewpoint
18 18 22 19 20 22 25 22 19 13 16 21 22 26 29 32 34 35 35 34 34 33 31 28 26 23 21 19 21 21 22 22 19 18 17 19 20 21 22 22 21 22 22 23
18 21 22 21 20 22 21 21 18 16 17 19 23 27 30 32 34 34 32 32 30 27 24 21 18 16 16 17 18 18 16 14 14 16 16 17 19 20 20 21 22 23 23 24
17 22 21 16 22 21 21 21 21 18 19 23 24 26 29 32 33 31 29 27 23 21 18 17 14 14 15 15 15 13 13 13 13 14 16 16 18 19 20 21 21 22 22 23
22 23 12 17 21 22 21 22 22 21 22 24 25 27 31 32 30 27 25 22 19 18 15 14 13 13 14 14 14 16 13 13 14 16 16 18 19 20 20 21 21 21 21 22
21 20 17 17 19 23 21 22 23 22 24 27 29 29 29 29 26 24 21 19 16 13 11 10 11 11 11 11 11 11 11 14 16 18 19 20 21 21 21 21 21 21 21 21
24 18 14 17 23 25 23 18 25 24 25 28 28 26 28 25 22 19 18 12 9 8 9 10 10 10 9 10 10 11 17 19 20 21 21 21 21 21 21 21 21 21 21 21
22 19 17 21 23 25 15 16 26 26 27 28 25 27 25 21 18 11 9 8 7 7 9 10 12 11 12 13 14 19 20 21 21 21 21 20 20 20 21 21 22 21 21 21
21 19 14 23 22 20 23 27 27 28 27 26 27 22 18 12 11 12 11 11 11 11 14 16 16 15 14 15 18 19 20 20 20 20 19 19 21 22 23 22 21 21 21 21
21 20 19 20 22 23 25 25 25 22 23 21 16 12 12 12 11 10 10 12 13 14 15 16 17 16 15 16 18 19 19 19 19 18 18 19 21 22 22 21 21 21 22 24
19 17 18 20 19 22 21 20 19 18 16 12 11 11 10 9 9 9 10 11 12 12 12 13 14 15 16 18 19 19 19 18 18 18 19 20 21 21 22 21 22 23 26 26
15 16 15 17 19 18 17 15 13 13 12 11 10 9 8 9 10 11 13 13 14 14 15 15 16 17 18 19 20 19 18 18 18 19 20 21 21 22 21 23 24 22 24 23
19 16 17 16 16 14 12 12 11 11 10 10 9 9 10 10 12 13 14 15 16 16 16 17 17 18 19 20 19 18 18 19 20 21 22 22 22 23 26 25 25 25 25 24
15 15 13 12 12 11 11 11 11 10 9 9 9 10 11 12 13 17 15 16 17 17 18 18 18 19 19 19 19 19 19 20 22 22 22 22 26 23 21 22 24 24 24 24
13 13 15 14 12 11 11 11 13 9 9 9 10 13 15 14 15 16 16 17 18 19 19 19 19 18 18 19 19 20 21 23 22 22 23 27 23 23 21 21 20 21 23 23
22 16 15 14 13 12 11 11 10 10 10 11 12 12 13 14 16 17 18 19 19 19 19 18 18 18 19 20 21 21 20 23 23 25 27 23 22 21 21 21 21 20 20 23
27 22 16 13 12 12 11 11 11 11 12 12 13 14 15 15 16 18 19 19 19 19 19 18 19 19 20 21 21 24 23 22 27 24 23 21 21 20 22 22 21 20 22 22
24 22 16 13 12 12 12 12 12 12 13 14 15 16 16 17 18 18 18 19 19 19 18 19 18 20 22 23 26 23 22 27 22 21 20 20 20 23 23 23 22 22 23 23
17 15 13 13 13 12 13 13 14 15 16 17 17 17 17 17 18 18 19 19 18 18 19 19 21 23 23 25 25 24 27 22 21 21 21 21 23 24 24 24 24 24 23 23
15 15 14 14 14 15 15 15 16 17 18 18 17 18 18 19 19 20 19 17 17 17 18 21 22 24 26 24 25 25 22 21 20 20 21 21 23 23 24 24 24 23 23 22
17 18 17 17 18 17 17 18 18 18 18 18 18 18 18 19 19 18 17 16 17 18 20 21 22 25 24 25 24 22 20 21 21 22 23 24 23 24 23 23 22 23 23 22
16 17 17 18 18 18 18 18 17 18 19 19 18 18 19 17 16 16 16 16 17 20 21 21 24 25 27 24 22 21 22 22 23 23 22 22 21 21 22 22 22 22 21 20
16 16 16 16 17 16 17 18 18 18 18 19 18 16 16 16 16 16 17 17 18 20 21 26 25 26 23 23 22 21 22 22 23 22 21 20 21 21 21 21 21 21 20 18
14 14 14 14 14 15 17 17 18 18 17 16 16 17 17 16 16 15 16 19 19 21 25 25 27 24 23 22 21 21 21 21 20 20 20 21 21 21 21 20 21 21 19 19
15 14 15 15 14 15 15 16 16 16 16 17 17 16 16 16 16 17 18 19 20 25 23 27 25 23 23 21 21 21 21 21 20 20 20 21 20 20 21 21 20 21 20 21
15 15 15 14 14 15 16 16 15 15 16 15 15 15 15 16 15 18 19 21 23 23 23 24 24 22 23 22 21 20 20 21 21 20 20 20 20 19 19 20 20 22 21 21
15 15 14 14 14 15 15 15 16 17 16 15 15 16 16 18 18 19 22 25 23 23 22 22 21 23 23 23 21 20 20 21 20 21 22 21 21 20 20 19 20 21 21 21
13 16 13 13 14 14 14 17 15 14 15 16 16 16 17 19 19 21 24 20 21 22 20 21 23 20 21 20 21 21 20 20 20 22 22 21 20 21 17 15 17 21 21 22
Lifted_Index
3 3 3 3 3 2 2 2 2 2 3 4 4 4 4 5 5 6 6 7 8 8 9 9 10 11 12 12 13 13 13 14 15 17 18 19 20 20 21 21 21 21 21 20
3 3 3 3 3 3 3 2 2 2 3 4 4 4 4 5 5 5 6 7 8 8 9 9 10 11 12 12 13 13 14 14 16 18 19 19 20 20 21 21 21 20 20 19
3 3 3 3 4 4 3 3 3 3 4 4 4 4 4 5 5 5 6 7 8 9 9 10 11 12 12 13 13 14 15 16 17 18 19 20 20 21 21 20 20 19 19 18
2 2 3 3 4 5 4 4 4 4 5 5 5 5 5 6 6 6 7 7 8 9 11 12 13 13 13 14 14 15 16 17 18 19 20 20 20 20 20 19 19 18 18 17
2 2 2 3 4 5 4 4 5 5 5 5 5 5 6 7 7 8 8 9 10 11 12 13 13 14 14 15 16 16 17 18 19 20 20 20 20 20 19 18 18 17 17 17
2 2 2 4 4 4 4 4 5 5 5 5 5 5 6 7 8 9 10 11 12 12 13 13 14 15 15 16 16 17 18 19 20 20 20 20 19 19 18 17 17 17 17 17
1 2 3 4 4 4 4 4 5 5 5 5 5 6 6 8 9 10 11 12 12 13 13 14 16 16 16 16 17 18 19 20 20 20 19 19 18 18 17 17 17 17 17 18
1 2 3 4 4 4 4 4 5 5 5 5 6 6 6 7 8 10 11 12 13 13 14 16 17 17 17 17 18 19 19 19 19 19 18 18 17 17 17 17 17 17 18 18
1 2 3 3 4 4 5 5 5 5 5 5 5 6 6 7 9 10 11 13 14 15 15 17 18 18 18 18 19 19 19 18 18 17 17 17 17 17 17 17 17 18 18 18
2 2 2 3 4 4 4 5 5 5 5 5 5 5 6 8 10 11 13 14 15 16 16 17 18 18 18 18 18 18 17 17 17 17 17 17 17 18 18 18 18 18 17 17
2 2 2 3 4 4 4 5 5 5 6 6 6 7 8 10 11 13 15 16 16 16 17 17 17 18 18 18 17 17 17 17 17 17 17 17 18 18 18 18 18 17 16 15
2 2 3 3 4 5 5 5 6 6 7 8 8 9 11 12 14 15 16 16 16 16 16 17 17 17 17 17 17 17 16 17 17 17 17 18 18 18 18 17 16 16 15 14
3 3 4 4 6 6 6 7 8 9 10 11 12 13 14 14 15 16 16 16 16 16 16 16 16 16 16 17 17 17 17 17 17 17 17 18 17 17 16 14 14 13 13 13
5 5 5 6 7 9 9 10 11 12 13 13 14 15 15 15 15 15 15 15 15 15 15 15 15 16 16 17 17 17 17 17 18 18 18 17 16 15 13 12 12 12 12 13
7 7 8 9 10 11 12 12 13 13 13 14 14 14 14 14 14 14 15 15 15 15 15 15 15 16 16 17 17 17 17 18 18 17 17 16 15 13 12 12 11 11 12 12
7 8 10 11 12 12 12 12 12 13 13 13 14 14 14 14 14 14 14 14 14 14 14 15 15 16 17 17 17 17 17 17 17 16 15 14 13 12 12 12 11 12 12 12
8 9 11 11 12 12 12 12 13 13 13 13 13 13 13 13 13 13 14 14 14 14 15 15 16 16 17 17 17 17 16 16 15 14 12 12 12 12 12 12 12 12 12 13
10 11 12 12 12 12 13 13 13 13 13 13 13 13 13 13 13 13 13 14 14 14 15 15 16 17 17 17 17 16 15 14 12 12 11 11 12 12 12 12 12 12 12 13
13 12 12 13 13 13 13 13 13 13 13 13 12 12 12 12 13 13 13 13 14 14 15 16 17 17 17 16 15 14 13 12 11 11 11 12 12 12 12 12 12 12 12 13
12 12 12 12 12 12 12 12 12 12 12 12 12 12 12 12 13 13 13 14 14 15 16 16 16 16 15 14 13 12 11 11 11 11 11 11 11 11 12 12 12 12 12 12
12 11 11 11 11 11 11 12 11 11 11 12 12 12 12 12 13 14 14 14 15 16 16 16 15 15 14 13 12 11 11 11 11 11 11 11 11 11 11 11 12 12 12 12
10 11 10 10 10 11 11 11 11 11 11 12 12 12 13 13 14 14 14 14 15 15 15 14 14 13 12 12 11 11 11 11 11 11 11 11 11 11 11 11 12 12 12 12
9 10 10 10 10 10 10 11 11 11 12 12 13 13 13 14 14 13 13 14 14 14 13 13 12 12 12 11 11 11 11 11 11 11 11 11 11 11 11 12 12 12 12 13
9 9 9 9 10 10 10 10 11 11 12 12 13 13 13 13 13 13 13 13 12 12 12 12 12 12 11 11 11 11 11 11 12 12 12 12 12 12 12 12 12 12 13 13
8 8 9 9 9 9 10 10 10 11 11 12 12 13 13 13 12 12 12 12 11 11 11 11 12 11 11 11 11 12 12 12 12 12 12 12 12 12 12 13 13 13 13 13
8 9 9 9 9 9 9 9 9 10 10 11 11 12 12 12 12 11 11 11 11 11 11 11 12 12 12 12 12 12 12 12 13 13 13 13 13 13 13 13 13 13 13 14
9 9 9 9 9 9 9 9 9 9 10 10 11 12 12 12 12 12 11 11 11 11 11 12 12 12 12 12 12 13 13 13 13 13 13 13 13 13 13 13 13 13 14 14